Temperature
21 21 21 21 18 17 18 19 19 19 18 18 18 18 17 17 17 17 17 17 17 17 17 17 17 17 17 17 17 18 18 18 18 17 17 17 17 17 17 17 17 17 17 18 18 18 18 18 18
21 21 21 20 17 17 18 19 19 19 19 19 18 18 17 17 17 17 17 17 17 17 17 17 17 17 17 17 17 17 17 18 17 17 17 17 17 17 17 17 17 17 17 17 17 18 18 18 18
21 21 21 17 17 18 19 19 19 19 19 19 18 18 17 17 17 17 17 17 17 17 17 17 17 17 17 17 17 17 17 17 17 17 17 17 17 17 17 17 17 17 17 17 17 17 17 17 17
21 21 20 17 18 18 19 19 19 19 19 19 18 17 17 17 17 17 17 17 17 17 17 17 17 17 17 17 17 17 17 17 17 17 17 17 17 17 17 17 17 17 17 17 17 17 17 17 17
22 21 17 17 18 19 18 19 19 19 19 18 18 17 17 17 17 18 17 17 17 17 17 17 17 17 17 17 17 17 17 17 17 17 17 17 17 17 17 17 17 17 17 17 17 17 17 17 17
22 18 17 18 19 19 19 19 19 19 19 18 18 17 17 17 18 18 17 17 17 17 17 17 17 17 17 17 17 17 17 17 17 17 17 17 17 17 17 17 17 17 17 17 17 17 17 17 17
20 17 17 18 18 19 20 20 19 19 18 18 18 17 17 17 18 17 17 17 17 17 17 17 17 17 17 17 17 17 17 17 17 17 17 17 17 17 17 17 17 17 17 16 16 16 16 16 17
21 17 18 18 19 19 20 20 20 19 19 19 19 17 17 18 17 17 17 17 17 17 17 17 17 17 17 17 17 17 17 17 17 16 16 17 17 17 17 16 16 16 16 16 16 16 16 16 16
21 17 18 19 19 19 20 20 20 20 19 19 19 19 19 18 18 17 17 17 17 17 17 17 17 17 17 17 17 17 17 17 17 16 16 16 16 16 16 16 16 16 16 16 16 16 16 16 16
21 17 19 19 19 19 20 20 20 19 19 18 18 19 19 18 18 18 18 18 17 17 17 17 17 17 17 17 17 17 16 16 16 16 16 16 16 16 16 16 16 16 16 16 16 16 16 16 16
20 19 20 20 20 21 20 20 20 19 18 19 19 19 18 18 18 18 18 18 18 17 17 17 17 17 17 17 17 17 16 16 16 16 16 16 16 16 16 16 16 16 16 16 16 16 16 16 16
20 20 20 21 21 21 20 20 20 20 20 20 20 19 19 18 18 18 18 18 18 18 18 17 17 17 17 17 17 17 16 16 16 16 16 16 16 16 16 16 16 16 16 16 16 16 16 16 15
20 20 21 21 21 21 21 20 20 19 20 20 20 19 19 19 18 18 18 18 18 18 18 18 17 17 17 17 17 17 16 16 16 16 16 16 16 16 16 16 16 16 16 16 15 15 15 15 15
20 20 20 21 21 21 20 20 20 19 20 20 20 19 19 19 19 18 18 18 18 18 18 18 17 17 17 17 17 17 16 16 16 16 16 16 16 16 16 16 16 15 15 15 15 15 15 15 15
21 20 20 20 21 20 20 19 19 19 20 19 19 19 19 19 19 19 18 18 18 18 18 18 17 17 17 17 17 17 16 16 16 16 16 16 16 16 16 16 15 15 15 15 15 15 15 15 15
20 19 19 20 20 20 20 19 19 19 19 18 18 18 18 19 19 19 18 18 18 18 18 18 17 17 17 17 17 17 16 16 16 16 16 16 16 15 15 15 15 15 15 15 15 15 15 15 15
18 18 19 19 20 19 19 18 18 19 18 18 18 18 18 18 18 19 18 18 18 18 18 18 18 17 17 17 17 16 16 16 16 16 16 16 16 15 15 15 15 15 15 15 15 15 15 15 14
18 18 19 19 19 19 18 18 17 18 18 18 18 18 18 18 19 19 19 18 18 18 18 18 18 17 17 17 17 16 16 16 16 16 16 16 15 15 15 15 15 15 15 15 15 15 15 15 14
19 19 18 18 19 19 18 17 17 17 17 17 17 18 18 18 19 18 18 18 18 18 18 18 17 17 17 17 17 16 16 16 16 16 15 15 15 15 15 15 15 15 15 15 15 15 15 14 14
19 19 18 19 19 19 18 17 17 17 17 17 17 18 18 19 19 18 18 18 18 18 18 18 17 17 17 17 17 16 16 16 16 15 15 15 15 15 15 15 15 15 15 15 15 15 15 14 14
19 19 19 19 18 18 18 17 17 17 17 18 18 18 18 18 19 19 19 18 18 18 18 18 17 17 17 17 16 16 16 16 15 15 15 15 15 15 15 15 15 15 14 15 15 14 14 14 14
19 19 19 19 18 16 18 16 17 16 16 16 17 18 18 18 18 19 19 18 18 18 18 18 17 17 17 17 16 16 16 16 16 15 15 15 15 15 15 15 15 15 15 14 14 14 14 14 14
19 19 19 18 17 16 16 16 16 15 16 16 16 17 18 18 18 18 18 18 18 18 18 17 17 17 17 16 16 16 16 16 15 15 15 15 15 15 15 15 15 15 15 14 14 14 14 14 14
19 18 17 15 15 16 17 16 16 15 16 16 16 17 18 18 18 18 18 18 18 18 18 17 17 17 16 16 16 16 16 16 15 15 15 15 15 15 15 15 15 14 14 14 14 14 14 14 14
18 16 16 16 15 15 16 16 16 16 16 16 16 17 18 18 18 18 18 18 18 18 18 17 17 17 16 16 16 16 16 15 15 15 15 15 15 15 15 15 14 14 14 14 14 14 14 14 14
17 17 16 16 15 15 16 16 16 16 16 17 17 17 18 18 18 18 18 18 18 18 17 17 17 17 16 16 16 16 16 15 15 15 15 15 15 15 15 14 14 14 14 14 14 14 14 14 14
18 16 16 15 15 15 15 16 16 16 16 16 16 16 17 17 18 18 18 18 18 17 17 17 17 16 16 16 16 16 16 15 15 15 15 15 15 15 15 14 14 14 14 14 14 14 14 14 14
17 15 14 14 15 15 16 16 15 16 16 15 15 16 16 17 17 17 18 18 18 17 17 17 16 16 16 16 16 16 16 15 15 15 15 15 15 15 14 14 14 14 14 14 14 14 14 14 14
17 16 14 13 14 14 15 15 16 16 15 15 15 16 16 17 17 17 17 17 17 17 17 17 16 16 16 16 16 16 16 15 15 15 15 15 15 14 14 14 14 14 14 14 14 14 14 14 14
17 16 14 15 14 13 13 15 16 15 15 15 15 16 16 17 17 17 17 17 17 17 17 17 16 16 16 16 16 15 15 15 15 15 15 15 15 14 14 14 14 14 14 14 14 14 14 13 13
Wind_Speed
4 3 3 4 5 6 4 2 1 2 3 3 4 6 6 4 3 2 2 0 0 2 3 3 4 5 7 8 8 9 9 9 10 10 11 11 11 11 11 11 11 12 12 11 11 11 11 11 11
1 2 4 5 5 4 2 2 2 2 3 4 5 5 5 4 2 2 1 1 1 1 2 3 5 6 7 8 8 8 9 10 10 10 10 10 10 11 11 11 11 11 11 12 12 11 11 12 11
2 3 4 5 5 4 2 0 3 4 4 3 4 4 4 3 2 1 1 1 2 2 3 4 7 8 8 8 8 8 8 9 10 10 10 10 11 11 11 11 11 11 12 12 12 12 12 13 13
3 5 5 6 6 1 1 2 4 5 3 4 4 5 3 2 2 2 2 3 3 2 3 3 6 7 8 8 8 8 8 9 9 10 10 10 11 11 11 11 11 11 12 12 12 12 12 13 13
4 5 6 5 4 2 1 1 2 4 3 4 4 4 3 4 2 4 4 4 3 2 3 4 6 6 7 8 8 8 8 9 9 9 9 10 10 10 10 10 11 11 12 12 12 12 13 13 13
5 5 6 4 3 3 2 2 3 5 4 4 4 4 2 2 3 3 3 3 2 2 3 5 5 6 7 7 7 8 8 8 9 9 8 9 9 10 10 10 10 11 11 12 12 13 14 14 13
5 5 5 4 2 2 1 2 3 4 4 2 4 4 1 0 2 3 3 3 3 3 4 4 6 6 6 7 7 7 7 8 8 8 8 8 9 9 9 9 10 10 11 12 13 13 14 14 14
5 5 5 3 3 1 0 2 2 3 3 3 3 6 4 4 3 4 4 4 3 2 3 3 4 5 6 6 7 7 8 8 8 8 8 9 9 9 9 9 10 10 11 12 13 13 14 14 14
4 6 3 3 4 2 1 3 3 3 5 3 2 3 4 6 6 5 3 2 2 1 1 2 2 3 4 4 6 7 8 9 8 8 9 9 9 9 8 9 11 11 12 12 13 13 14 13 13
5 4 3 3 4 4 2 3 3 4 4 3 4 4 5 7 7 5 4 3 1 1 1 0 1 2 3 3 5 6 6 7 7 7 7 8 8 8 8 10 11 12 12 12 13 13 13 12 11
5 4 2 1 3 4 3 2 3 6 2 3 6 7 7 6 5 5 4 3 3 2 1 1 1 0 1 2 3 4 4 4 5 5 5 6 7 7 8 8 9 9 10 10 10 11 10 10 9
5 2 2 2 2 3 3 3 3 2 3 4 7 9 8 7 6 6 5 4 3 2 2 1 1 1 1 1 2 3 2 3 3 3 4 5 4 4 5 5 6 7 7 8 8 7 8 9 9
4 2 3 3 5 4 5 4 3 1 2 5 8 8 8 7 6 4 3 3 3 2 2 1 2 2 1 2 1 2 2 2 3 3 4 4 3 2 4 4 5 6 7 7 6 6 7 7 8
2 3 3 3 4 3 5 3 3 1 3 6 7 6 6 6 5 3 3 3 3 3 3 2 2 2 3 2 1 2 2 3 4 4 4 4 4 3 3 3 4 5 5 6 7 6 6 5 6
3 5 5 3 2 1 5 3 1 2 5 6 5 5 4 4 4 5 5 4 4 4 3 3 3 3 3 2 2 2 3 4 4 3 3 4 4 4 4 3 3 4 5 7 7 7 6 5 5
5 5 2 3 2 2 4 2 3 3 6 5 4 3 4 4 4 5 5 4 4 4 3 2 3 4 3 3 2 3 3 4 3 3 3 4 4 5 4 3 3 4 5 5 4 4 5 5 5
5 2 1 3 1 2 3 3 3 3 5 4 4 4 4 3 4 4 4 5 5 5 4 3 3 4 4 3 3 3 3 3 3 3 2 3 4 6 5 3 3 4 5 4 4 4 3 4 4
2 1 1 3 2 2 1 3 3 2 4 4 4 4 4 5 7 5 4 4 4 4 4 4 3 4 4 3 3 3 3 2 3 3 2 2 4 5 5 4 4 4 3 3 3 4 4 3 3
3 2 2 3 2 2 3 4 5 2 3 4 4 4 5 7 5 3 3 3 3 3 4 4 4 3 3 2 2 2 1 1 1 2 2 2 3 4 5 3 3 3 3 3 3 4 4 3 2
2 1 1 2 1 2 2 4 4 3 4 5 6 6 7 5 3 3 3 3 4 4 4 4 4 4 4 3 2 2 2 1 1 1 3 3 3 3 4 4 3 3 3 4 3 3 3 1 2
1 3 3 2 2 3 1 5 4 3 2 3 3 4 5 6 6 5 5 5 4 5 5 5 5 5 4 4 3 3 3 3 2 2 1 2 2 3 3 4 3 3 3 3 3 3 4 2 1
3 4 4 3 2 2 1 3 6 4 3 3 4 4 5 5 5 5 5 5 6 6 4 4 5 4 4 5 4 4 3 2 1 1 0 1 3 3 3 3 3 3 2 3 3 2 2 3 2
4 1 2 2 3 1 2 1 7 3 3 5 5 4 4 4 5 5 6 6 5 5 5 4 4 4 4 5 5 5 3 2 1 1 2 2 2 2 2 3 3 2 2 2 3 2 2 2 3
3 5 6 5 4 1 2 3 6 3 4 4 3 3 3 3 3 4 3 3 3 3 3 4 4 3 4 5 4 5 5 3 3 1 1 1 1 2 2 2 2 2 2 2 2 2 3 2 2
6 6 4 5 4 4 3 2 6 4 4 4 3 3 2 1 1 2 3 3 3 4 4 4 5 4 4 5 4 4 5 5 4 3 2 2 1 0 0 1 1 1 1 2 2 2 2 2 3
2 6 6 3 3 4 2 3 5 3 3 1 1 1 1 1 0 2 4 4 4 4 4 5 5 4 4 4 4 4 4 3 3 3 3 3 2 2 1 1 1 1 2 2 2 1 1 2 2
4 2 5 6 2 1 5 5 5 2 4 4 3 3 2 1 1 2 2 3 3 4 4 5 5 4 3 4 3 3 3 4 4 3 3 2 2 2 2 2 2 1 2 2 2 1 1 2 2
4 7 5 4 3 2 5 4 4 3 3 3 2 2 3 2 2 1 1 3 3 4 4 4 4 4 4 3 4 3 4 4 4 4 3 3 3 2 2 2 2 2 2 2 2 1 1 2 1
3 4 4 4 4 4 3 6 4 5 4 3 3 3 2 2 2 1 1 1 2 2 3 3 3 3 3 3 3 3 3 3 4 4 4 4 3 3 3 3 3 3 2 2 2 2 2 2 1
3 4 6 3 3 3 3 6 4 3 3 2 2 2 2 2 1 1 1 2 1 2 2 3 3 3 4 4 4 4 3 3 3 4 4 4 4 3 4 3 3 3 3 3 3 3 2 3 2
Wind_Direction
352 50 79 59 57 55 54 14 77 58 54 46 57 75 86 75 86 125 283 255 263 327 342 359 62 68 72 78 75 74 75 78 81 81 81 80 81 81 83 81 79 75 71 69 68 70 71 71 71
35 67 57 60 76 75 35 356 91 91 131 120 69 69 72 67 70 105 325 268 56 20 18 49 80 78 76 79 81 78 78 81 83 83 83 81 79 80 84 80 77 74 71 69 67 68 70 71 74
77 53 75 67 76 112 120 59 109 91 105 93 74 59 74 82 96 151 241 147 76 47 46 68 82 80 81 82 82 78 80 84 83 83 83 80 79 80 81 79 74 73 71 68 67 68 70 72 75
77 47 55 67 74 54 134 125 123 114 77 57 90 69 56 35 154 173 137 109 92 49 44 72 85 81 85 85 83 83 86 84 84 85 85 82 80 79 77 76 73 71 70 67 68 71 73 74 76
61 72 63 59 49 19 34 83 102 100 84 65 86 84 31 357 79 119 118 115 107 62 37 55 81 78 76 82 84 85 87 86 85 85 85 83 79 78 76 74 73 71 70 67 68 70 74 76 76
54 64 78 80 53 21 19 36 87 81 88 86 87 88 44 12 101 124 118 113 100 74 38 39 55 68 70 74 78 82 86 85 84 82 82 79 79 78 76 73 73 72 69 68 70 71 74 75 75
90 80 96 109 91 48 50 61 92 100 91 111 118 98 80 265 188 132 106 94 75 55 47 34 29 40 56 64 67 73 78 80 82 82 77 74 72 72 71 70 70 71 70 73 74 75 73 74 73
108 93 81 86 107 98 87 81 87 101 102 101 107 131 178 205 161 106 84 73 70 52 39 32 25 30 37 44 58 65 66 68 71 74 69 63 57 59 63 66 67 71 74 76 75 76 75 73 71
81 76 106 159 152 164 130 92 54 67 92 70 78 147 173 138 124 108 83 52 45 37 18 17 14 18 30 38 52 56 54 52 52 55 57 50 42 42 51 65 67 73 77 75 75 75 73 70 67
73 102 166 188 166 153 123 107 114 85 76 71 70 71 105 121 134 143 154 173 199 256 301 356 351 359 23 39 50 48 49 49 46 46 48 48 43 43 53 61 66 72 74 72 71 74 72 68 64
80 123 136 99 144 133 114 90 100 115 114 190 168 152 139 140 153 169 182 190 205 220 248 202 209 0 44 37 38 40 44 45 44 46 52 59 51 46 50 53 53 59 65 63 63 67 71 71 68
81 69 113 117 116 112 119 110 93 122 214 201 164 150 150 160 175 187 190 192 184 180 210 191 167 124 81 63 45 51 52 51 46 38 51 67 60 50 50 53 53 57 65 68 68 73 75 74 69
71 63 50 72 83 101 94 91 111 64 63 106 119 134 158 175 190 201 193 186 174 183 206 205 174 157 120 89 70 79 72 77 71 63 65 79 75 61 57 57 60 63 72 76 76 78 76 72 66
80 71 55 58 73 74 101 71 83 153 111 115 131 152 174 188 193 186 187 192 184 188 200 195 172 159 123 109 105 94 91 90 83 81 81 84 88 80 71 67 64 66 74 86 86 83 79 71 69
69 63 31 23 59 81 101 37 267 189 129 139 157 171 184 206 201 201 202 198 189 189 189 183 174 146 131 129 113 96 91 94 89 90 93 91 95 93 87 75 70 73 87 93 88 80 77 74 68
55 60 24 321 36 85 112 251 278 152 143 164 185 191 201 222 222 222 207 201 193 178 179 186 156 140 141 127 108 94 93 94 91 92 91 90 100 105 95 83 75 85 96 95 90 78 77 70 69
38 68 285 311 344 112 141 250 298 149 152 180 201 212 216 234 251 241 217 203 194 181 171 162 143 140 138 121 104 92 84 79 77 77 82 95 104 110 108 98 93 99 97 89 97 77 85 86 79
207 202 256 275 293 119 177 259 293 188 175 206 220 228 229 232 241 237 218 197 186 169 158 152 141 135 124 105 88 74 66 50 51 57 61 97 108 118 118 112 106 104 96 85 90 93 78 85 86
159 167 240 264 255 152 217 262 281 220 199 220 230 232 238 242 249 236 208 178 163 154 154 157 148 144 132 118 118 112 111 31 24 26 42 74 105 124 124 117 107 105 109 113 115 109 92 76 80
133 163 260 301 329 163 230 281 283 224 213 216 218 225 231 243 247 218 201 185 183 176 173 167 167 161 162 151 138 133 122 95 72 18 39 53 95 120 134 129 129 121 117 110 111 119 113 93 75
214 194 210 236 359 28 35 325 304 287 246 239 231 228 226 221 222 216 203 201 191 188 188 184 183 175 169 146 110 83 61 42 29 21 12 11 69 100 117 133 126 129 133 141 145 142 135 143 77
248 236 192 169 107 310 43 299 293 292 304 271 261 249 236 229 221 214 206 204 203 201 188 182 175 175 168 151 143 136 142 162 217 227 310 32 55 81 101 123 126 133 136 145 157 142 135 141 145
220 40 115 126 138 32 6 195 290 325 294 283 269 255 241 224 210 211 209 206 202 188 178 174 162 171 169 161 159 153 152 167 147 86 73 52 39 52 83 111 117 126 142 154 151 140 138 145 151
120 69 57 48 74 348 261 185 286 269 258 284 288 277 255 231 217 210 205 185 181 164 163 157 156 172 165 162 162 165 166 160 140 126 111 61 37 27 41 84 104 121 131 151 162 157 150 151 141
70 80 33 7 13 265 278 197 255 273 268 249 264 286 284 239 193 188 179 181 185 174 172 168 165 178 173 167 171 178 175 171 174 177 176 166 136 71 335 73 100 103 126 136 137 148 157 153 145
117 131 150 196 231 284 320 243 260 293 311 300 304 322 3 6 193 201 198 191 194 188 176 170 174 183 177 177 184 183 179 179 188 188 182 185 190 198 179 133 134 131 126 123 124 140 161 143 157
120 127 155 137 162 274 289 292 304 358 11 17 17 19 348 317 248 219 202 184 187 189 186 178 174 183 187 187 182 183 187 188 193 192 186 188 194 192 162 144 144 126 127 133 138 143 160 147 167
116 136 99 117 149 264 297 289 266 293 304 327 340 325 319 334 334 315 235 197 188 187 181 167 169 182 191 189 187 191 197 197 193 181 186 194 200 189 169 164 161 154 143 144 149 151 165 142 180
82 92 100 114 150 164 264 277 234 236 242 250 275 282 290 304 306 311 310 259 178 156 153 164 173 180 190 201 197 190 194 191 183 187 197 200 199 188 187 185 178 171 170 160 148 157 154 157 170
163 157 143 149 214 175 191 265 275 251 240 226 264 289 297 300 302 330 3 27 89 151 164 176 182 192 203 201 193 193 191 182 187 200 205 198 197 200 198 187 181 185 182 173 168 174 166 168 180
Height
1505 1504 1505 1506 1510 1522 1527 1524 1520 1520 1521 1522 1521 1522 1524 1527 1530 1535 1531 1528 1528 1527 1526 1525 1525 1525 1525 1524 1524 1524 1523 1523 1523 1524 1524 1524 1524 1524 1524 1525 1525 1525 1525 1524 1524 1524 1524 1523 1523
1505 1505 1507 1507 1519 1533 1531 1523 1522 1521 1522 1522 1523 1524 1525 1527 1529 1530 1529 1529 1529 1527 1526 1526 1526 1526 1526 1526 1526 1526 1526 1525 1526 1526 1526 1526 1526 1526 1526 1527 1527 1527 1526 1526 1526 1526 1525 1525 1525
1506 1506 1508 1512 1524 1532 1529 1523 1522 1522 1523 1523 1525 1526 1527 1529 1530 1530 1531 1530 1530 1529 1528 1528 1528 1528 1528 1528 1528 1528 1528 1528 1528 1528 1528 1528 1528 1528 1528 1528 1529 1528 1528 1528 1528 1528 1527 1527 1526
1507 1509 1510 1519 1526 1526 1524 1522 1522 1523 1524 1524 1525 1528 1529 1531 1532 1532 1532 1532 1531 1531 1531 1530 1530 1530 1530 1530 1530 1530 1530 1530 1530 1530 1530 1530 1530 1530 1530 1530 1530 1530 1530 1530 1529 1529 1529 1529 1528
1508 1509 1518 1528 1527 1525 1523 1523 1523 1523 1525 1526 1527 1529 1531 1532 1533 1533 1533 1533 1533 1533 1533 1533 1533 1533 1532 1532 1532 1532 1532 1532 1532 1532 1533 1533 1533 1533 1532 1532 1532 1532 1532 1532 1532 1531 1531 1531 1530
1510 1512 1528 1534 1529 1525 1524 1523 1523 1525 1526 1527 1528 1530 1533 1534 1534 1535 1535 1535 1536 1535 1535 1535 1535 1535 1535 1534 1534 1534 1534 1534 1534 1534 1535 1535 1535 1535 1535 1534 1534 1534 1534 1534 1534 1533 1533 1532 1532
1512 1519 1529 1531 1531 1528 1526 1525 1525 1526 1527 1529 1529 1531 1533 1534 1535 1536 1537 1537 1537 1538 1538 1537 1537 1537 1537 1537 1537 1536 1536 1536 1537 1536 1537 1537 1537 1537 1537 1536 1536 1536 1536 1536 1536 1535 1535 1534 1534
1512 1519 1529 1532 1531 1530 1526 1526 1527 1527 1529 1530 1531 1532 1533 1535 1536 1537 1538 1538 1539 1539 1540 1539 1539 1539 1539 1539 1539 1539 1538 1538 1539 1539 1539 1539 1539 1539 1539 1538 1538 1538 1538 1538 1538 1537 1537 1536 1536
1514 1525 1533 1531 1530 1529 1526 1527 1528 1529 1530 1531 1531 1532 1534 1535 1536 1538 1539 1539 1540 1541 1541 1541 1541 1541 1541 1541 1541 1540 1540 1540 1540 1540 1540 1541 1541 1541 1541 1540 1540 1540 1540 1540 1539 1539 1539 1538 1537
1516 1529 1528 1525 1525 1526 1527 1528 1529 1530 1531 1532 1532 1533 1534 1536 1537 1538 1539 1540 1541 1542 1542 1542 1542 1542 1542 1542 1542 1542 1542 1542 1542 1542 1542 1542 1542 1543 1543 1542 1542 1542 1542 1542 1541 1541 1541 1540 1539
1518 1525 1524 1524 1524 1525 1527 1529 1529 1531 1533 1532 1532 1533 1535 1537 1538 1539 1540 1541 1542 1543 1543 1544 1544 1544 1544 1544 1544 1544 1544 1544 1544 1544 1544 1544 1544 1544 1544 1544 1544 1544 1544 1543 1543 1543 1542 1542 1541
1521 1523 1524 1525 1525 1526 1528 1529 1531 1531 1533 1532 1533 1534 1536 1537 1539 1540 1541 1542 1543 1544 1544 1545 1545 1545 1545 1545 1545 1545 1545 1545 1545 1545 1545 1546 1545 1546 1546 1546 1546 1546 1545 1545 1545 1544 1544 1543 1543
1523 1525 1525 1526 1526 1527 1528 1530 1531 1532 1533 1533 1534 1536 1537 1538 1539 1540 1541 1543 1543 1544 1545 1545 1545 1546 1546 1546 1546 1546 1546 1546 1546 1546 1546 1546 1547 1547 1547 1547 1547 1547 1547 1547 1546 1546 1545 1545 1544
1525 1525 1527 1527 1527 1528 1530 1532 1532 1533 1533 1534 1535 1536 1537 1538 1540 1541 1542 1542 1543 1544 1545 1545 1546 1546 1546 1547 1547 1547 1547 1547 1547 1547 1547 1547 1548 1548 1548 1548 1548 1548 1548 1548 1548 1547 1547 1546 1546
1526 1528 1530 1529 1529 1530 1531 1535 1534 1534 1534 1535 1536 1537 1538 1539 1540 1541 1542 1543 1544 1544 1545 1546 1546 1547 1547 1547 1547 1548 1548 1548 1548 1548 1548 1548 1548 1549 1549 1549 1549 1549 1549 1549 1549 1549 1548 1548 1547
1528 1534 1538 1532 1530 1531 1535 1541 1534 1534 1534 1535 1536 1537 1538 1539 1540 1541 1542 1543 1544 1544 1545 1546 1546 1547 1547 1548 1548 1548 1548 1548 1548 1549 1549 1549 1549 1549 1549 1550 1550 1550 1550 1550 1550 1549 1549 1549 1549
1537 1543 1541 1536 1531 1532 1535 1539 1534 1534 1534 1535 1536 1536 1537 1538 1539 1540 1541 1542 1543 1544 1545 1546 1546 1547 1548 1548 1549 1549 1549 1549 1549 1549 1549 1549 1550 1550 1550 1550 1550 1551 1551 1551 1551 1550 1550 1550 1550
1543 1542 1541 1539 1533 1533 1536 1537 1534 1534 1534 1535 1535 1536 1536 1536 1537 1539 1540 1542 1543 1544 1545 1546 1546 1547 1547 1548 1548 1549 1549 1549 1549 1549 1549 1549 1550 1550 1550 1551 1551 1551 1551 1551 1551 1551 1551 1551 1551
1535 1539 1541 1538 1533 1535 1538 1537 1534 1533 1534 1534 1534 1535 1535 1535 1537 1538 1539 1541 1542 1543 1544 1545 1545 1546 1547 1547 1548 1548 1549 1549 1549 1549 1549 1549 1550 1550 1551 1551 1551 1551 1551 1551 1551 1551 1551 1552 1552
1535 1539 1540 1537 1532 1535 1538 1538 1533 1532 1532 1532 1532 1533 1533 1534 1535 1536 1538 1539 1540 1541 1542 1544 1545 1546 1547 1547 1548 1548 1549 1549 1549 1549 1549 1549 1550 1550 1551 1551 1551 1551 1551 1551 1551 1552 1552 1552 1552
1535 1538 1538 1538 1535 1535 1538 1541 1535 1531 1530 1530 1531 1531 1531 1532 1533 1534 1536 1537 1539 1540 1541 1543 1544 1545 1546 1547 1547 1548 1548 1548 1549 1549 1549 1549 1550 1550 1550 1551 1551 1551 1551 1551 1551 1552 1552 1552 1552
1538 1531 1532 1535 1542 1548 1543 1554 1539 1534 1531 1529 1529 1529 1529 1530 1531 1532 1533 1535 1536 1538 1540 1541 1542 1544 1545 1546 1546 1547 1547 1548 1548 1548 1548 1549 1549 1550 1550 1550 1550 1550 1551 1551 1551 1551 1551 1552 1552
1531 1528 1532 1535 1541 1548 1547 1552 1546 1536 1533 1530 1527 1527 1527 1527 1529 1530 1531 1533 1535 1537 1538 1540 1541 1542 1543 1544 1545 1546 1546 1547 1548 1548 1548 1548 1549 1549 1549 1550 1550 1550 1550 1550 1550 1551 1551 1552 1552
1528 1532 1537 1543 1547 1557 1550 1553 1549 1539 1533 1529 1526 1525 1525 1526 1527 1528 1530 1532 1533 1535 1536 1538 1539 1541 1542 1543 1544 1545 1546 1546 1547 1547 1547 1548 1548 1548 1549 1549 1549 1549 1549 1549 1550 1550 1550 1551 1551
1531 1543 1558 1559 1565 1562 1548 1550 1546 1532 1528 1527 1526 1524 1524 1525 1526 1527 1528 1530 1531 1533 1534 1536 1537 1539 1541 1542 1543 1544 1545 1545 1546 1546 1547 1547 1547 1548 1548 1548 1548 1548 1549 1549 1549 1549 1550 1550 1550
1535 1541 1559 1566 1568 1562 1550 1550 1539 1529 1526 1525 1524 1524 1524 1524 1525 1526 1527 1528 1530 1531 1532 1534 1536 1537 1539 1540 1541 1542 1543 1544 1544 1545 1546 1546 1547 1547 1547 1547 1548 1548 1548 1548 1548 1549 1549 1549 1549
1536 1542 1543 1556 1558 1562 1555 1545 1534 1527 1526 1525 1524 1523 1523 1523 1524 1525 1526 1527 1528 1530 1531 1532 1534 1536 1537 1538 1540 1541 1542 1542 1543 1544 1545 1545 1546 1546 1546 1546 1546 1547 1547 1547 1547 1547 1548 1548 1548
1532 1539 1549 1556 1564 1567 1557 1550 1544 1532 1529 1526 1525 1525 1524 1524 1524 1524 1525 1525 1527 1528 1530 1531 1533 1534 1536 1537 1538 1539 1540 1540 1541 1542 1543 1543 1544 1544 1545 1545 1545 1545 1545 1545 1546 1546 1546 1546 1547
1537 1541 1548 1555 1557 1565 1565 1554 1532 1530 1527 1526 1525 1525 1524 1524 1523 1524 1524 1524 1526 1527 1528 1530 1531 1533 1534 1535 1536 1537 1538 1538 1539 1540 1541 1541 1542 1543 1543 1543 1543 1543 1544 1544 1544 1544 1544 1545 1545
1532 1536 1544 1553 1556 1559 1562 1553 1526 1525 1524 1524 1524 1524 1524 1524 1523 1523 1524 1524 1525 1526 1527 1528 1529 1530 1532 1533 1534 1535 1536 1536 1537 1537 1538 1539 1540 1540 1541 1541 1541 1541 1542 1542 1542 1542 1542 1543 1543